Powrót do katalogu

STARLINK-3304

AktywnyŁącznośćVLEO
NORAD 50161·PAYLOAD·🇺🇸 United States

Wystrzelony Dec 18, 2021 z Vandenberg Space Force Base

Loading…

Następne Przeloty (najbliższe 24 godziny)

TLE

ŚwieżeSource: CelesTrak SupGP

Epoka: Sep 14, 2026, 21:34 UTC

1 50161C 21125F   26257.89909722 -.00020899  00000+0 -59800-3 0  2573
2 50161  53.1573 117.5951 0001313  85.4246 123.3103 15.35404888    15

Śledź STARLINK-3304 w czasie rzeczywistym z AllMySat

Download on the App Store